Location: Ostrava
(49.8330°N, 18.2830°E)
Time: 06:08:26
(UTC+01:00)

ISS - Visible Passes

Search period start: 19 January 2019 00:00
Search period end: 29 January 2019 00:00
Orbit: 404 x 411 km, 51.6° (Epoch: 19 January)

Date Brightness Start Highest point End Pass type
(mag) Time Alt. Az. Time Alt. Az. Time Alt. Az.
23 Jan -1.9 18:39:19 10° SSW 18:40:56 22° S 18:40:56 22° S visible
24 Jan -2.0 17:48:36 10° S 17:50:59 19° SE 17:51:51 17° ESE visible
24 Jan -0.9 19:23:50 10° WSW 19:24:35 16° WSW 19:24:35 16° WSW visible
25 Jan -3.3 18:32:33 10° SW 18:35:26 49° S 18:35:26 49° S visible
26 Jan -2.8 17:41:24 10° SW 17:44:26 35° SSE 17:46:13 19° E visible
26 Jan -1.4 19:17:32 10° W 19:18:57 23° W 19:18:57 23° W visible
27 Jan -4.0 18:26:04 10° WSW 18:29:23 86° SSE 18:29:40 72° E visible
28 Jan -3.6 17:34:41 10° WSW 17:37:57 62° SSE 17:40:21 17° ENE visible
28 Jan -1.8 19:11:16 10° W 19:13:04 29° WNW 19:13:04 29° WNW visible
